Regional Weather Roundup
Issued by NWS

Home | Current Version | Previous Version | Text Only | Print | Product List | Glossary Off
Versions: 1 2 3 4 5 6 7 8 9 10 11 12 13 14 15 16 17 18 19 20 21 22 23 24 25 26 27 28 29 30 31 32 33 34 35 36 37 38 39 40 41 42 43 44 45 46 47 48 49 50

000
ASUS45 KBOU 250907
RWRCO

WEATHER ROUNDUP FOR COLORADO
NATIONAL WEATHER SERVICE DENVER/BOULDER CO
300 AM MDT SUN JUN 25 2017

NOTE: "FAIR" INDICATES FEW OR NO CLOUDS BELOW 12000 FEET WITH NO
SIGNIFICANT WEATHER AND/OR OBSTRUCTIONS TO VISIBILITY.

COZ001>005-013-030-031-251000-
...NORTHWEST COLORADO...

CITY           SKY/WX    TMP DP  RH WIND       PRES   REMARKS
CRAIG          FAIR      47  37  68 E3        30.30S
HAYDEN         FAIR      48  28  46 E15       30.32S
MEEKER         FAIR      46  31  55 E6        30.31S
RABBIT EARS PA FAIR      45  30  57 CALM      30.57S
STEAMBOAT SPGS FAIR      42  33  70 CALM      30.35S
WALDEN         FAIR      37  32  81 SE6       30.44F
$$

COZ006>008-011-251000-
...WEST CENTRAL VALLEYS...

CITY           SKY/WX    TMP DP  RH WIND       PRES   REMARKS
GRAND JUNCTION FAIR      68  25  19 E7        30.16R
MONTROSE       FAIR      59  31  34 SE10      30.25S
EAGLE          FAIR      49  27  42 CALM      30.38S
RIFLE          FAIR      54  29  38 SE5       30.26R
DELTA          FAIR      63  30  28 CALM      30.21R
NUCLA          FAIR      61  25  25 E12       30.26S
$$

COZ017>023-064>068-251000-
...SOUTHWEST COLORADO...

CITY           SKY/WX    TMP DP  RH WIND       PRES   REMARKS
DURANGO        FAIR      47  24  40 NE6       30.28R
CORTEZ         FAIR      48  28  46 NE8       30.20F
PAGOSA SPRINGS FAIR      54  25  32 CALM      30.38S
TELLURIDE      FAIR      53  24  32 SE7       30.49S
WOLF CREEK PAS FAIR      41  36  81 CALM      30.72S
$$

COZ009-010-012-014-032>034-037-058>063-251000-
...CENTRAL COLORADO...

CITY           SKY/WX    TMP DP  RH WIND       PRES   REMARKS
ASPEN          FAIR      47  28  47 SW8       30.40S
BUENA VISTA    CLOUDY    56  45  64 CALM      30.47S
COPPER MTN     FAIR      45  32  61 S15       30.67F
BERTHOUD PASS  FAIR      34  21  60 W15G22    30.68S WCI  24
COTTONWOOD PAS FAIR      52  43  71 E3        30.57F
GUNNISON       FAIR      48  32  53 N12G24    30.42R
KREMMLING      NOT AVBL
LEADVILLE      FAIR      39  35  86 NE6       30.56R
MONARCH PASS   FOG       41  39  93 E12       30.78R VSB<1/4
SALIDA         CLOUDY    60  46  61 SE3       30.52S
SUNLIGHT       FAIR      45  21  39 NE5       30.61S
WILKERSON PASS CLOUDY    41  39  93 SW8       30.67F FOG
$$

COZ069>075-251000-
...SAN LUIS VALLEY/SANGRE DE CRISTO MOUNTAINS...

CITY           SKY/WX    TMP DP  RH WIND       PRES   REMARKS
ALAMOSA        FAIR      50  43  77 W7        30.40R
DEL NORTE      FAIR      49  37  63 W10       30.44S
LA VETA PASS   CLOUDY    45  43  93 N8        30.68F
SAGUACHE       FAIR      50  39  66 N5        30.43S
$$

COZ035-036-038>040-251000-
...NORTHERN COLORADO FRONT RANGE...

CITY           SKY/WX    TMP DP  RH WIND       PRES   REMARKS
DENVER INTL AP FAIR      49  45  86 S8        30.33F
DMNS CITY PARK   N/A     56  49  77 E7        30.33F
AURORA         PTCLDY    51  48  88 SW7       30.35F
FRONT RANGE AP FAIR      52  46  82 S7        30.34F
ERIE MUNI ARPT NOT AVBL
BOULDER MUN AP FAIR      59  50  72 CALM      30.33F
CENTENNIAL     FAIR      54  48  80 W6        30.36F
BROOMFIELD     FAIR      55  48  76 CALM      30.36S
FORT COLLINS   FAIR      58  49  72 E8        30.34F
LONGMONT       FAIR      57  48  73 NW3       30.35S
$$

COZ041-046-047-076>085-087-088-251000-
...PIKES PEAK/PALMER DIVIDE AND SOUTHERN FOOTHILLS...

CITY           SKY/WX    TMP DP  RH WIND       PRES   REMARKS
COLO. SPRINGS  FAIR      58  49  72 CALM      30.39F
A. F. ACADEMY  FAIR      52  45  75 CALM      30.40F
SCHRIEVER AFB  FAIR      54  49  83 W5        30.39F
CHEYENNE MTN   FAIR      57  46  68 S5        30.37F
ELLICOTT       MOCLDY   N/A N/A N/A SE7       30.37F
FALCON           N/A     51  46  84 CALM      30.43F
FORT CARSON    MOCLDY    54  47  77 NW5       30.36F
LIMON          FAIR      53  47  79 SE7       30.36F
MONUMENT HILL  FAIR      48  43  81 SW6       30.44F
CANON CITY     CLEAR     63  52  67 CALM      30.33F
WALSENBURG     PTSUNNY   55  48  76 SW7       30.36S
TRINIDAD       MOCLDY    59  50  72 CALM      30.35R
$$

COZ042>045-048>051-090-091-251000-
...NORTHEAST COLORADO...

CITY           SKY/WX    TMP DP  RH WIND       PRES   REMARKS
GREELEY ARPT   FAIR      58  51  78 S3        30.34F
AKRON          CLOUDY    56  51  84 S10       30.33S
BURLINGTON     CLOUDY    56  52  86 SE12      30.33F
WRAY           FAIR      57  46  67 SE10      30.33S
YUMA           FAIR      52  50  93 SE6       30.32F
STERLING       CLOUDY    55  50  82 N5        30.31F
HOLYOKE        NOT AVBL
FORT MORGAN    CLOUDY    56  51  81 E3        30.33S
$$

COZ086-089-092>099-251000-
...SOUTHEAST COLORADO...

CITY           SKY/WX    TMP DP  RH WIND       PRES   REMARKS
PUEBLO         FAIR      60  52  74 N7        30.29F
LA JUNTA       MOCLDY    64  54  69 SE6       30.28S
LAMAR          FAIR      60  54  80 NE7       30.27S
SPRINGFIELD      N/A     63  57  81 S9        30.30F
$$



USA.gov is the U.S. government's official web portal to all federal, state and local government web resources and services.